Wind_Speed
7 7 7 8 8 9 9 10 12 11 13 13 12 10 9 7 8 10 12 5 13 8 8 9 12 10 5 1 0 1 4 1 8 6 5 8 5 6 7 10 5 6 4 18 25
7 7 8 8 9 9 10 11 11 12 12 13 13 12 10 9 9 4 2 9 10 10 9 13 16 8 3 1 1 4 2 6 7 4 4 12 12 16 6 6 7 10 9 22 24
8 9 9 10 10 10 10 11 12 12 13 13 14 13 12 10 0 2 4 9 9 10 12 18 10 3 3 1 2 3 3 3 8 17 12 14 17 17 9 4 11 18 26 26 23
10 9 10 11 11 11 11 12 12 13 13 13 14 13 12 6 3 2 4 7 10 15 17 14 7 2 2 2 2 2 7 8 12 27 10 8 10 11 19 5 10 26 30 28 23
10 10 11 11 11 11 12 12 12 13 12 12 13 13 11 5 2 1 1 4 8 15 19 13 9 3 1 2 5 4 3 11 14 12 4 18 15 8 20 1 23 31 29 25 21
11 11 11 12 12 12 13 13 13 13 13 12 13 13 10 4 1 1 0 4 7 17 18 13 6 2 4 3 2 6 14 18 8 9 1 4 3 4 7 19 31 32 29 33 30
12 12 12 13 13 13 13 14 14 14 13 12 12 12 11 10 4 3 2 4 5 12 16 12 4 2 5 6 7 9 7 9 7 4 6 7 5 3 22 29 33 32 31 28 24
12 13 13 14 14 14 14 15 16 15 13 12 11 11 7 6 6 8 2 6 9 13 11 7 3 10 4 4 8 5 3 4 2 1 3 2 4 2 29 34 29 28 26 20 17
13 14 14 15 14 14 14 16 16 13 11 10 9 7 7 6 11 9 5 4 11 13 9 5 5 4 3 4 5 4 5 3 8 5 1 7 5 8 25 29 24 27 25 22 16
14 15 15 16 14 13 13 15 8 7 5 7 8 5 8 3 5 10 9 7 8 5 4 4 2 3 3 4 4 4 4 3 5 2 2 7 2 2 14 17 20 25 19 18 9
15 16 16 16 13 13 10 8 7 3 15 9 9 9 13 4 5 9 14 12 8 2 4 1 2 6 9 7 4 4 5 6 12 4 3 6 8 15 17 15 18 20 19 17 10
15 16 15 15 12 11 7 5 10 13 12 16 20 23 24 21 6 7 13 11 7 5 3 4 6 8 6 5 5 5 5 11 10 2 4 4 4 7 10 8 25 30 18 16 18
15 16 15 12 11 9 3 2 10 7 5 13 15 18 26 19 11 13 17 13 4 6 5 6 5 4 6 4 4 5 5 6 9 4 2 2 4 4 5 5 9 24 11 16 18
15 16 14 11 6 8 3 2 6 5 4 7 5 7 15 12 6 23 21 11 3 8 6 5 10 11 4 7 7 6 8 9 7 2 2 2 3 6 5 4 8 23 17 18 19
16 16 14 12 7 4 5 1 2 3 3 3 3 2 12 15 6 10 24 16 8 6 6 8 2 3 5 6 6 11 7 4 4 3 3 2 3 3 4 4 7 17 19 27 22
16 17 17 11 10 7 6 1 1 5 6 6 4 4 5 6 3 5 14 12 10 4 2 7 7 3 5 5 6 10 3 6 5 3 2 5 3 2 4 5 5 17 28 26 19
16 15 18 11 3 6 7 3 5 3 5 6 3 4 2 5 4 4 7 6 6 3 5 5 6 5 6 5 2 5 6 3 4 4 5 2 2 7 5 4 3 14 26 22 18
18 17 17 13 9 8 8 5 4 3 5 5 5 4 6 4 4 3 6 5 5 4 2 4 7 5 3 8 8 5 8 6 6 4 4 2 3 3 2 8 4 8 9 4 12
20 16 15 8 12 14 9 3 7 6 4 7 8 5 6 5 2 3 8 7 8 8 8 4 6 4 4 3 6 3 4 4 7 3 2 3 5 4 2 8 19 23 26 27 19
22 14 6 7 14 18 4 5 4 4 4 4 3 4 5 6 3 3 6 4 4 11 5 3 5 6 4 4 2 6 5 4 3 4 3 4 3 5 6 5 5 18 31 29 18
16 6 7 16 17 13 4 6 4 4 8 5 1 3 3 3 0 2 4 2 0 5 15 5 4 7 4 4 5 2 1 6 6 4 6 3 6 6 11 12 14 20 32 25 27
7 3 13 21 5 1 3 4 4 2 4 4 3 6 4 3 4 3 5 3 11 3 9 8 5 6 9 5 3 4 6 6 5 4 1 4 6 2 9 12 17 16 27 25 19
10 3 11 10 3 1 4 3 2 2 4 3 3 5 2 2 4 5 4 4 5 2 3 5 3 7 10 6 3 4 2 5 5 4 6 5 6 2 6 9 11 22 29 27 28
4 2 2 9 3 2 3 3 3 6 7 7 6 4 2 4 5 4 3 4 16 9 8 8 3 8 12 9 3 3 3 4 6 4 3 6 4 6 8 9 15 21 28 30 27
6 2 3 2 2 3 3 3 3 5 5 4 3 2 4 5 3 5 2 5 7 7 5 3 4 4 5 4 4 5 3 8 5 6 6 6 8 9 18 11 23 31 31 23 26
3 4 5 2 6 4 4 5 3 4 3 3 4 10 7 6 6 5 3 2 5 5 3 3 2 2 1 0 3 3 1 3 2 4 5 4 8 2 17 23 19 25 24 26 26
3 2 3 3 3 2 2 4 3 5 4 5 9 5 5 1 17 26 21 7 5 2 1 2 2 2 3 2 1 4 3 3 2 2 6 4 5 5 6 16 22 29 26 27 28
Wind_Direction
4 2 1 355 357 354 352 349 351 351 351 350 347 341 335 322 301 277 263 237 193 169 159 178 170 174 203 240 312 56 56 359 165 191 232 188 203 191 184 251 209 223 198 170 164
349 349 348 348 344 346 340 340 343 344 346 347 344 340 338 331 316 312 212 174 153 171 165 159 151 165 257 286 185 93 113 217 177 207 216 177 194 188 197 205 203 204 162 168 169
339 342 340 339 337 337 332 329 331 337 339 343 341 337 338 338 46 35 119 162 165 145 150 152 150 162 289 294 225 178 205 251 247 209 209 188 215 201 212 219 211 184 159 171 170
334 335 333 329 328 326 326 323 325 328 330 334 334 333 336 338 144 82 120 151 145 153 162 169 179 164 264 304 284 302 255 265 293 305 198 201 214 207 193 228 234 175 162 165 173
325 326 325 323 322 321 322 319 318 318 321 324 327 329 337 322 254 130 122 169 155 168 170 171 171 188 225 247 297 207 275 305 290 302 232 226 216 189 187 3 153 156 156 160 168
315 316 317 316 316 316 317 317 314 311 314 315 318 319 322 300 155 86 37 207 172 165 172 181 179 204 283 266 260 298 298 297 247 252 336 193 106 139 110 153 142 157 160 176 175
312 311 311 312 311 314 316 315 312 307 305 306 309 311 300 272 239 224 336 185 180 172 182 185 209 288 318 316 326 314 327 341 233 218 199 138 38 66 153 148 148 161 178 182 181
307 308 307 308 308 311 316 314 311 303 297 297 299 305 269 246 238 211 213 179 177 179 175 185 278 284 223 303 359 356 34 2 15 233 232 101 215 228 162 154 154 163 181 191 203
304 305 303 303 304 309 319 318 314 306 295 286 287 287 266 258 234 207 194 169 151 161 186 232 318 251 174 73 5 346 250 229 328 304 72 52 144 222 176 157 156 174 187 206 216
304 302 301 299 303 310 326 325 316 321 331 294 265 289 244 219 269 216 196 174 172 182 231 235 168 80 37 87 219 226 285 308 259 277 340 91 59 78 182 165 165 186 202 225 225
305 299 299 294 300 309 334 346 346 325 319 264 273 263 275 269 276 230 213 197 204 167 156 134 97 207 217 204 176 331 310 288 280 246 334 118 165 192 195 177 175 194 212 228 200
308 301 300 292 296 299 336 38 24 317 294 283 268 257 255 261 300 231 209 183 170 187 150 21 253 207 208 203 209 232 278 285 294 217 169 84 181 222 189 217 178 190 210 207 204
313 306 302 295 291 279 290 35 1 347 271 288 250 243 235 231 228 230 197 193 150 157 175 165 250 96 175 226 234 242 203 244 235 357 19 13 96 253 258 271 192 207 227 208 204
315 312 311 313 271 252 241 311 355 328 34 275 244 248 201 193 237 230 204 189 210 195 181 217 251 258 247 254 158 282 215 229 240 75 283 62 267 255 216 189 232 228 212 207 220
315 310 304 309 278 267 203 255 307 324 342 241 214 210 178 175 149 210 204 195 169 190 121 240 200 155 212 231 147 235 284 232 218 125 102 295 85 289 65 242 246 253 218 220 232
310 307 297 297 284 263 220 194 238 45 255 320 164 164 141 198 177 98 175 201 208 181 247 232 259 221 222 267 180 265 180 43 57 80 25 275 134 276 188 239 212 235 237 218 231
305 302 289 276 257 164 185 159 53 158 322 333 346 354 249 170 192 146 143 167 166 135 267 317 253 215 198 298 9 91 51 351 359 13 222 249 43 235 210 248 169 224 236 241 235
309 298 278 264 231 203 163 60 175 245 265 305 329 301 188 149 237 133 122 190 252 117 98 195 319 175 173 174 208 196 160 156 193 188 247 280 252 256 281 337 300 178 103 156 280
315 304 282 259 211 185 172 117 204 208 301 344 325 50 352 342 255 140 180 213 199 163 188 174 273 282 170 141 145 199 207 183 104 49 74 265 289 330 97 50 76 81 87 92 333
324 318 297 221 187 175 94 224 229 228 326 3 9 30 6 335 61 114 176 220 227 186 156 231 296 235 253 168 224 157 159 84 12 130 226 282 260 228 131 169 154 113 115 112 238
332 331 331 153 164 164 168 225 250 264 35 20 310 307 277 277 283 328 212 287 217 282 187 147 131 250 98 183 218 31 233 45 116 129 163 190 260 210 173 174 183 167 156 159 203
357 24 137 141 94 82 165 200 335 331 340 287 216 226 234 282 211 265 226 245 11 294 167 194 156 235 245 284 263 172 214 145 127 232 130 156 266 40 170 180 175 177 177 187 188
349 31 167 187 132 242 278 284 268 270 242 254 268 220 93 345 316 221 240 257 348 53 170 184 218 252 309 353 353 208 136 91 98 94 194 141 262 286 179 153 193 181 194 200 202
4 34 51 203 44 94 19 266 265 275 256 219 245 252 308 253 216 263 242 288 335 330 19 132 156 178 226 211 184 166 150 131 122 105 195 221 225 218 210 163 173 189 198 197 190
16 28 15 317 354 345 282 317 355 3 324 298 313 28 327 278 230 226 215 336 324 4 41 113 209 198 216 210 201 217 168 158 164 190 174 252 204 192 200 184 181 187 196 187 182
38 17 353 298 313 332 1 1 47 338 287 344 9 309 284 206 224 279 147 129 240 329 23 12 269 244 219 128 298 241 229 72 117 115 287 336 259 239 148 170 184 191 188 185 193
50 23 318 318 1 62 334 322 2 347 284 296 301 287 273 74 306 276 266 195 196 244 263 72 118 76 252 39 341 345 222 147 221 183 172 231 269 145 146 163 186 193 197 186 194
Height
1520 1519 1516 1516 1515 1513 1512 1511 1509 1507 1505 1503 1502 1501 1499 1498 1496 1495 1493 1494 1495 1497 1497 1497 1498 1500 1501 1501 1501 1500 1511 1519 1523 1517 1505 1502 1507 1504 1505 1506 1507 1508 1505 1505 1511
1520 1518 1517 1516 1514 1512 1511 1509 1508 1506 1504 1503 1501 1500 1499 1496 1494 1492 1493 1492 1494 1496 1497 1498 1500 1502 1501 1502 1502 1502 1514 1507 1502 1500 1499 1499 1503 1499 1502 1504 1507 1506 1504 1507 1509
1518 1517 1514 1513 1512 1510 1509 1508 1506 1505 1503 1502 1500 1499 1497 1495 1494 1493 1492 1493 1495 1496 1498 1500 1501 1503 1502 1502 1501 1502 1507 1498 1493 1495 1496 1498 1502 1501 1501 1501 1502 1503 1503 1508 1513
1518 1516 1514 1513 1511 1510 1508 1506 1505 1503 1502 1500 1499 1497 1496 1495 1498 1493 1493 1494 1495 1497 1499 1500 1502 1503 1503 1502 1500 1504 1497 1496 1491 1485 1492 1494 1496 1494 1495 1498 1497 1506 1506 1509 1515
1517 1515 1514 1512 1510 1508 1507 1505 1503 1502 1500 1499 1497 1496 1495 1495 1493 1493 1493 1494 1495 1497 1499 1501 1502 1503 1504 1502 1501 1500 1498 1494 1493 1486 1485 1488 1487 1492 1494 1494 1497 1503 1507 1513 1515
1517 1515 1513 1511 1509 1507 1505 1503 1501 1499 1498 1497 1496 1495 1495 1496 1493 1493 1493 1494 1495 1497 1499 1501 1503 1504 1503 1503 1502 1498 1493 1489 1489 1487 1487 1486 1489 1488 1497 1495 1496 1502 1506 1504 1501
1515 1514 1512 1510 1508 1505 1503 1501 1499 1497 1496 1495 1494 1493 1493 1492 1492 1492 1493 1494 1496 1497 1499 1502 1503 1504 1503 1500 1498 1495 1495 1488 1486 1487 1487 1486 1493 1492 1494 1496 1496 1502 1506 1509 1508
1514 1512 1511 1509 1506 1503 1501 1498 1496 1494 1493 1493 1492 1491 1489 1488 1489 1491 1493 1493 1495 1497 1500 1502 1503 1502 1501 1500 1500 1501 1501 1509 1488 1487 1484 1485 1508 1497 1493 1492 1497 1501 1506 1508 1507
1513 1511 1509 1508 1505 1502 1500 1497 1494 1492 1491 1490 1491 1491 1487 1486 1487 1490 1492 1493 1495 1497 1499 1500 1501 1502 1502 1507 1517 1511 1518 1509 1500 1487 1487 1492 1505 1494 1494 1492 1495 1500 1500 1501 1502
1511 1509 1508 1507 1504 1501 1499 1495 1492 1490 1489 1489 1489 1492 1485 1485 1485 1487 1490 1493 1495 1497 1498 1499 1500 1504 1507 1515 1533 1518 1513 1506 1508 1492 1489 1497 1502 1499 1498 1499 1499 1500 1500 1498 1503
1509 1507 1505 1505 1502 1500 1498 1495 1495 1492 1488 1487 1487 1485 1482 1483 1484 1484 1488 1491 1493 1496 1499 1499 1506 1514 1507 1506 1506 1504 1508 1511 1497 1490 1491 1497 1499 1494 1495 1498 1499 1501 1500 1499 1502
1506 1504 1502 1502 1500 1500 1499 1498 1501 1502 1490 1481 1480 1479 1478 1482 1484 1483 1486 1490 1491 1498 1497 1503 1509 1499 1499 1501 1504 1507 1512 1509 1495 1485 1489 1495 1504 1495 1495 1494 1493 1496 1498 1500 1501
1504 1502 1499 1500 1499 1499 1499 1499 1499 1498 1494 1475 1472 1471 1473 1478 1480 1479 1483 1486 1488 1495 1497 1506 1495 1490 1497 1499 1505 1505 1511 1506 1504 1491 1489 1492 1510 1505 1496 1496 1499 1499 1500 1501 1500
1502 1499 1496 1497 1500 1497 1498 1499 1498 1497 1505 1479 1470 1465 1467 1474 1475 1476 1479 1483 1487 1492 1494 1498 1488 1489 1495 1498 1500 1511 1488 1492 1495 1499 1514 1493 1527 1506 1499 1500 1501 1496 1501 1501 1499
1498 1496 1497 1496 1495 1495 1497 1497 1498 1498 1524 1469 1465 1464 1464 1469 1468 1469 1474 1480 1485 1487 1492 1497 1488 1490 1494 1492 1491 1497 1482 1487 1488 1499 1503 1503 1520 1509 1503 1506 1503 1495 1498 1497 1499
1498 1496 1494 1494 1492 1494 1496 1497 1499 1512 1518 1472 1463 1465 1467 1466 1467 1469 1474 1478 1480 1485 1485 1487 1483 1484 1484 1480 1484 1481 1485 1496 1502 1512 1528 1508 1512 1513 1511 1497 1493 1486 1487 1495 1498
1495 1494 1490 1492 1492 1493 1495 1497 1514 1523 1480 1478 1472 1466 1467 1468 1468 1469 1475 1481 1489 1502 1502 1489 1482 1476 1478 1484 1479 1485 1503 1531 1529 1538 1536 1508 1512 1507 1495 1491 1490 1485 1485 1494 1501
1490 1487 1485 1488 1490 1492 1494 1500 1517 1495 1492 1474 1472 1468 1471 1467 1469 1470 1478 1486 1481 1485 1502 1502 1504 1475 1470 1478 1484 1487 1496 1527 1538 1545 1531 1510 1515 1502 1490 1489 1486 1487 1495 1498 1505
1484 1482 1481 1484 1486 1491 1494 1512 1506 1496 1485 1483 1476 1478 1478 1469 1468 1470 1478 1480 1475 1478 1496 1503 1497 1468 1466 1468 1472 1483 1495 1487 1521 1526 1530 1522 1503 1492 1491 1493 1492 1493 1497 1493 1516
1482 1480 1479 1480 1483 1489 1495 1503 1495 1488 1485 1484 1488 1482 1485 1479 1476 1476 1480 1467 1470 1468 1472 1480 1497 1472 1465 1464 1466 1472 1475 1500 1515 1530 1532 1526 1512 1513 1501 1498 1498 1496 1493 1494 1505
1481 1479 1478 1479 1485 1489 1499 1499 1489 1485 1485 1487 1487 1486 1482 1479 1476 1478 1477 1467 1464 1464 1465 1475 1486 1478 1467 1472 1474 1477 1483 1496 1503 1515 1530 1536 1522 1485 1487 1488 1489 1488 1481 1479 1479
1482 1482 1481 1483 1488 1491 1494 1489 1487 1485 1485 1486 1484 1483 1483 1479 1478 1477 1475 1467 1464 1463 1470 1468 1486 1494 1482 1466 1462 1464 1473 1483 1509 1508 1518 1520 1511 1479 1476 1477 1480 1480 1479 1482 1488
1485 1485 1486 1486 1494 1494 1488 1487 1485 1484 1484 1484 1482 1478 1478 1481 1487 1476 1470 1461 1462 1461 1464 1467 1485 1494 1487 1477 1465 1465 1467 1479 1489 1497 1511 1518 1505 1479 1477 1480 1481 1483 1483 1488 1493
1489 1488 1486 1488 1489 1489 1489 1487 1486 1481 1480 1480 1479 1477 1479 1479 1478 1476 1471 1461 1458 1456 1455 1459 1480 1481 1487 1483 1469 1469 1467 1471 1482 1501 1500 1500 1481 1484 1479 1480 1479 1481 1483 1487 1493
1492 1494 1495 1494 1491 1491 1491 1487 1487 1487 1481 1478 1478 1479 1483 1485 1475 1476 1468 1466 1458 1456 1456 1461 1475 1471 1464 1463 1463 1463 1461 1471 1474 1477 1483 1473 1478 1467 1466 1470 1472 1476 1479 1487 1491
1494 1495 1494 1492 1492 1492 1490 1494 1490 1489 1486 1483 1484 1480 1477 1480 1475 1470 1466 1467 1468 1460 1459 1463 1471 1466 1465 1461 1462 1463 1458 1454 1457 1466 1467 1468 1473 1455 1460 1468 1473 1473 1475 1482 1486
1496 1496 1496 1493 1493 1493 1495 1492 1490 1489 1484 1482 1481 1478 1473 1470 1470 1464 1462 1459 1460 1462 1464 1466 1473 1480 1478 1469 1467 1480 1458 1454 1454 1455 1461 1466 1457 1457 1463 1463 1469 1471 1475 1481 1483